{"data":{"norad_id":52286,"epoch":"2026-09-20T01:34:12.597312Z","epoch_age_seconds":97053,"freshness":"FRESH","line1":"1 52286U 22041AB  26263.06542358  .00000001  00000+0  11181-4 0  9990","line2":"2 52286  53.1588 293.4129 0001224  88.1364 271.9779 15.34386646244024","mean_motion":15.34386646,"eccentricity":0.0001224,"inclination_deg":53.1588,"raan_deg":293.4129,"arg_perigee_deg":88.1364,"mean_anomaly_deg":271.9779,"bstar":1.1181e-5,"rev_number":24402,"period_min":93.848574852626,"perigee_km":461.90560769359,"apogee_km":463.5802551008,"semimajor_km":6840.8799313972,"source":"CELESTRAK","updated_at":"2026-09-20T09:00:40.015471Z"}}